| time (UTC) | temp C | wind direction | speed KPH | gust KPH | rain 1hr cm | rain 24hr cm | rain mn cm | humidity % | barometer mb |
| 20260503235304 | 8 | 260 | 3.2 | 3.2 | 0.00 | 0.00 | 0.00 | 56 | 1006.5 |
| 20260503234759 | 8 | 292 | 3.2 | 4.8 | 0.00 | 0.00 | 0.00 | 55 | 1006.3 |
| 20260503234257 | 8 | 235 | 4.8 | 4.8 | 0.00 | 0.00 | 0.00 | 55 | 1006.2 |
| 20260503233754 | 8 | 284 | 6.4 | 9.7 | 0.00 | 0.00 | 0.00 | 53 | 1006.0 |
| 20260503233249 | 8 | 264 | 1.6 | 3.2 | 0.00 | 0.00 | 0.00 | 56 | 1005.9 |
| 20260503232747 | 8 | 276 | 1.6 | 1.6 | 0.00 | 0.00 | 0.00 | 55 | 1005.8 |
| 20260503232244 | 8 | 292 | 1.6 | 3.2 | 0.00 | 0.00 | 0.00 | 55 | 1005.7 |
| 20260503231742 | 9 | 299 | 1.6 | 1.6 | 0.00 | 0.00 | 0.00 | 54 | 1005.6 |
| 20260503231239 | 9 | 288 | 3.2 | 4.8 | 0.00 | 0.00 | 0.00 | 53 | 1005.6 |
| 20260503230734 | 9 | 316 | 4.8 | 4.8 | 0.00 | 0.00 | 0.00 | 53 | 1005.5 |
| 20260503230232 | 10 | 268 | 1.6 | 1.6 | 0.00 | 0.00 | 0.00 | 53 | 1005.5 |
| 20260503225724 | 10 | 263 | 6.4 | 9.7 | 0.00 | 0.00 | 0.00 | 51 | 1005.3 |
| 20260503225224 | 10 | 314 | 4.8 | 4.8 | 0.00 | 0.00 | 0.00 | 52 | 1005.4 |
| 20260503224721 | 10 | 258 | 3.2 | 6.4 | 0.00 | 0.00 | 0.00 | 51 | 1005.1 |
| 20260503224219 | 10 | 245 | 4.8 | 9.7 | 0.00 | 0.00 | 0.00 | 50 | 1005.3 |
| 20260503223716 | 10 | 229 | 1.6 | 3.2 | 0.00 | 0.00 | 0.00 | 51 | 1005.0 |
| 20260503223214 | 10 | 287 | 9.7 | 14.5 | 0.00 | 0.00 | 0.00 | 49 | 1005.0 |
| 20260503222710 | 10 | 297 | 4.8 | 6.4 | 0.00 | 0.00 | 0.00 | 50 | 1004.9 |
| 20260503222208 | 10 | 302 | 3.2 | 4.8 | 0.00 | 0.00 | 0.00 | 50 | 1004.8 |
| 20260503221706 | 10 | 192 | 14.5 | 17.7 | 0.00 | 0.00 | 0.00 | 51 | 1004.8 |
| 20260503221203 | 10 | 269 | 3.2 | 3.2 | 0.00 | 0.00 | 0.00 | 51 | 1004.7 |
| 20260503220700 | 10 | 354 | 6.4 | 9.7 | 0.00 | 0.00 | 0.00 | 51 | 1004.7 |
| 20260503220156 | 10 | 201 | 6.4 | 11.3 | 0.00 | 0.00 | 0.00 | 51 | 1004.7 |
| 20260503215653 | 10 | 256 | 1.6 | 3.2 | 0.00 | 0.00 | 0.00 | 53 | 1004.7 |
| 20260503215149 | 10 | 231 | 1.6 | 1.6 | 0.00 | 0.00 | 0.00 | 55 | 1004.5 |
| 20260503214649 | 10 | 276 | 3.2 | 3.2 | 0.00 | 0.00 | 0.00 | 54 | 1004.6 |
| 20260503214144 | 10 | 287 | 8.0 | 12.9 | 0.00 | 0.00 | 0.00 | 52 | 1004.6 |
| 20260503213638 | 10 | 273 | 6.4 | 11.3 | 0.00 | 0.00 | 0.00 | 54 | 1004.5 |
| 20260503213134 | 10 | 78 | 3.2 | 3.2 | 0.00 | 0.00 | 0.00 | 55 | 1004.6 |
| 20260503212631 | 10 | 26 | 4.8 | 6.4 | 0.00 | 0.00 | 0.00 | 55 | 1004.6 |
| 20260503212129 | 10 | 283 | 8.0 | 12.9 | 0.00 | 0.00 | 0.00 | 54 | 1004.4 |
| 20260503211627 | 10 | 288 | 4.8 | 6.4 | 0.00 | 0.00 | 0.00 | 54 | 1004.3 |
| 20260503211121 | 10 | 288 | 1.6 | 3.2 | 0.00 | 0.00 | 0.00 | 55 | 1004.2 |
| 20260503210618 | 10 | 0 | 3.2 | 6.4 | 0.00 | 0.00 | 0.00 | 55 | 1004.1 |
| 20260503210115 | 10 | 33 | 3.2 | 3.2 | 0.00 | 0.00 | 0.00 | 54 | 1004.2 |
| 20260503205611 | 10 | 289 | 0.0 | 1.6 | 0.00 | 0.00 | 0.00 | 55 | 1004.2 |
| 20260503205107 | 10 | 38 | 11.3 | 12.9 | 0.00 | 0.00 | 0.00 | 52 | 1004.1 |
| 20260503204604 | 10 | 350 | 8.0 | 14.5 | 0.00 | 0.00 | 0.00 | 53 | 1004.2 |
| 20260503204101 | 10 | 45 | 3.2 | 4.8 | 0.00 | 0.00 | 0.00 | 54 | 1004.2 |
| 20260503203558 | 10 | 338 | 4.8 | 6.4 | 0.00 | 0.00 | 0.00 | 53 | 1004.2 |
| 20260503203056 | 11 | 334 | 6.4 | 9.7 | 0.00 | 0.00 | 0.00 | 53 | 1004.1 |
| 20260503202553 | 11 | 170 | 6.4 | 12.9 | 0.00 | 0.00 | 0.00 | 53 | 1004.3 |
| 20260503202051 | 11 | 38 | 9.7 | 22.5 | 0.00 | 0.00 | 0.00 | 52 | 1004.1 |
| 20260503201549 | 11 | 299 | 4.8 | 12.9 | 0.00 | 0.00 | 0.00 | 53 | 1004.1 |
| 20260503201046 | 11 | 267 | 1.6 | 3.2 | 0.00 | 0.00 | 0.00 | 54 | 1004.2 |
| 20260503200542 | 10 | 339 | 3.2 | 4.8 | 0.00 | 0.00 | 0.00 | 54 | 1004.1 |
| 20260503200038 | 10 | 355 | 1.6 | 4.8 | 0.00 | 0.00 | 0.00 | 52 | 1004.3 |
| 20260503195536 | 11 | 309 | 6.4 | 9.7 | 0.00 | 0.00 | 0.00 | 53 | 1004.3 |
| 20260503195027 | 11 | 256 | 6.4 | 6.4 | 0.00 | 0.00 | 0.00 | 54 | 1004.3 |
| 20260503194525 | 11 | 29 | 6.4 | 9.7 | 0.00 | 0.00 | 0.00 | 53 | 1004.2 |
| 20260503194024 | 12 | 335 | 4.8 | 6.4 | 0.00 | 0.00 | 0.00 | 54 | 1004.1 |
| 20260503193521 | 11 | 287 | 8.0 | 9.7 | 0.00 | 0.00 | 0.00 | 56 | 1004.3 |
| 20260503193017 | 11 | 312 | 6.4 | 9.7 | 0.00 | 0.00 | 0.00 | 54 | 1004.4 |
| 20260503192513 | 11 | 298 | 4.8 | 9.7 | 0.00 | 0.00 | 0.00 | 56 | 1004.4 |
| 20260503192009 | 11 | 292 | 1.6 | 1.6 | 0.00 | 0.00 | 0.00 | 57 | 1004.4 |
| 20260503191506 | 11 | 319 | 6.4 | 14.5 | 0.00 | 0.00 | 0.00 | 57 | 1004.4 |
| 20260503191003 | 11 | 227 | 6.4 | 9.7 | 0.00 | 0.00 | 0.00 | 57 | 1004.5 |
| 20260503190459 | 11 | 269 | 3.2 | 4.8 | 0.00 | 0.00 | 0.00 | 58 | 1004.6 |
| 20260503185956 | 11 | 234 | 6.4 | 11.3 | 0.00 | 0.00 | 0.00 | 57 | 1004.4 |
| 20260503185453 | 10 | 289 | 3.2 | 4.8 | 0.00 | 0.00 | 0.00 | 60 | 1004.4 |
| 20260503184952 | 10 | 231 | 1.6 | 1.6 | 0.00 | 0.00 | 0.00 | 60 | 1004.5 |
| 20260503184449 | 10 | 300 | 4.8 | 9.7 | 0.00 | 0.00 | 0.00 | 59 | 1004.5 |
| 20260503183945 | 10 | 285 | 3.2 | 4.8 | 0.00 | 0.00 | 0.00 | 58 | 1004.4 |
| 20260503183442 | 10 | 27 | 4.8 | 6.4 | 0.00 | 0.00 | 0.00 | 57 | 1004.4 |
| 20260503182939 | 11 | 282 | 9.7 | 12.9 | 0.00 | 0.00 | 0.00 | 58 | 1004.4 |
| 20260503182438 | 11 | 264 | 3.2 | 4.8 | 0.00 | 0.00 | 0.00 | 57 | 1004.3 |
| 20260503181935 | 10 | 318 | 4.8 | 6.4 | 0.00 | 0.00 | 0.00 | 60 | 1004.3 |
| 20260503181432 | 10 | 339 | 9.7 | 16.1 | 0.00 | 0.00 | 0.00 | 60 | 1004.3 |
| 20260503180928 | 10 | 57 | 6.4 | 14.5 | 0.00 | 0.00 | 0.00 | 62 | 1004.3 |
| 20260503180427 | 10 | 263 | 3.2 | 3.2 | 0.00 | 0.00 | 0.00 | 61 | 1004.4 |
| 20260503175923 | 10 | 325 | 9.7 | 14.5 | 0.00 | 0.00 | 0.00 | 63 | 1004.4 |
| 20260503175421 | 10 | 311 | 3.2 | 4.8 | 0.00 | 0.00 | 0.00 | 64 | 1004.4 |
| 20260503174916 | 10 | 232 | 3.2 | 4.8 | 0.00 | 0.00 | 0.00 | 66 | 1004.4 |
| 20260503174415 | 10 | 222 | 3.2 | 4.8 | 0.00 | 0.00 | 0.00 | 67 | 1004.4 |
| 20260503173909 | 10 | 288 | 4.8 | 6.4 | 0.00 | 0.00 | 0.00 | 67 | 1004.6 |
| 20260503173405 | 9 | 14 | 3.2 | 3.2 | 0.00 | 0.00 | 0.00 | 68 | 1004.5 |
| 20260503172902 | 8 | 8 | 1.6 | 3.2 | 0.00 | 0.00 | 0.00 | 69 | 1004.5 |
| 20260503172400 | 8 | 254 | 4.8 | 4.8 | 0.00 | 0.00 | 0.00 | 71 | 1004.4 |
| 20260503171856 | 8 | 344 | 6.4 | 9.7 | 0.00 | 0.00 | 0.00 | 70 | 1004.6 |
| 20260503171353 | 8 | 341 | 0.0 | 1.6 | 0.00 | 0.00 | 0.00 | 70 | 1004.7 |
| 20260503170850 | 8 | 306 | 6.4 | 11.3 | 0.00 | 0.00 | 0.00 | 70 | 1004.7 |
| 20260503170346 | 8 | 285 | 0.0 | 1.6 | 0.00 | 0.00 | 0.00 | 71 | 1004.7 |
| 20260503150739 | 7 | 269 | 4.8 | 6.4 | 0.00 | 0.00 | 0.00 | 84 | 1004.9 |
| 20260503150235 | 7 | 37 | 6.4 | 6.4 | 0.00 | 0.00 | 0.00 | 84 | 1005.1 |
| 20260503140159 | 6 | 317 | 4.8 | 6.4 | 0.00 | 0.00 | 0.00 | 92 | 1005.7 |
| 20260503131129 | 5 | 310 | 4.8 | 6.4 | 0.00 | 0.00 | 0.00 | 95 | 1006.1 |
| 20260503130626 | 5 | 292 | 1.6 | 3.2 | 0.00 | 0.00 | 0.00 | 96 | 1006.4 |
| 20260503130124 | 6 | 313 | 3.2 | 4.8 | 0.00 | 0.00 | 0.00 | 96 | 1006.2 |
| 20260503110511 | 5 | 31 | 1.6 | 1.6 | 0.00 | 0.00 | 0.00 | 99 | 1006.9 |
| 20260503090356 | 5 | 296 | 0.0 | 0.0 | 0.00 | 0.00 | 0.00 | 99 | 1007.3 |
| 20260503081323 | 5 | 286 | 0.0 | 0.0 | 0.00 | 0.00 | 0.00 | 99 | 1008.1 |
| 20260503080820 | 5 | 321 | 0.0 | 0.0 | 0.00 | 0.00 | 0.00 | 99 | 1008.2 |
| 20260503080317 | 5 | 328 | 0.0 | 0.0 | 0.00 | 0.00 | 0.00 | 99 | 1008.0 |
| 20260503072753 | 5 | 284 | 0.0 | 0.0 | 0.00 | 0.00 | 0.00 | 99 | 1008.2 |
| 20260503072251 | 5 | 303 | 0.0 | 0.0 | 0.00 | 0.00 | 0.00 | 99 | 1008.0 |
| 20260503071746 | 5 | 290 | 1.6 | 1.6 | 0.00 | 0.00 | 0.00 | 99 | 1008.0 |
| 20260503071244 | 5 | 322 | 0.0 | 1.6 | 0.00 | 0.00 | 0.00 | 99 | 1008.1 |
| 20260503070740 | 5 | 304 | 1.6 | 3.2 | 0.00 | 0.00 | 0.00 | 99 | 1008.2 |
| 20260503070239 | 5 | 297 | 1.6 | 1.6 | 0.00 | 0.00 | 0.00 | 99 | 1008.1 |
| 20260503060157 | 6 | 288 | 0.0 | 0.0 | 0.00 | 0.00 | 0.00 | 99 | 1009.0 |
| 20260503054644 | 6 | 306 | 0.0 | 0.0 | 0.00 | 0.00 | 0.00 | 99 | 1009.1 |
| 20260503054141 | 6 | 290 | 0.0 | 0.0 | 0.00 | 0.00 | 0.00 | 99 | 1009.3 |
| 20260503053639 | 6 | 354 | 1.6 | 1.6 | 0.00 | 0.00 | 0.00 | 99 | 1009.4 |
| 20260503053138 | 6 | 316 | 1.6 | 1.6 | 0.00 | 0.00 | 0.00 | 99 | 1009.6 |
| 20260503052634 | 6 | 284 | 0.0 | 0.0 | 0.00 | 0.00 | 0.00 | 99 | 1009.6 |
| 20260503052130 | 6 | 291 | 0.0 | 0.0 | 0.00 | 0.00 | 0.00 | 99 | 1009.4 |
| 20260503051625 | 6 | 294 | 0.0 | 0.0 | 0.00 | 0.00 | 0.00 | 99 | 1009.8 |
| 20260503051124 | 6 | 281 | 0.0 | 0.0 | 0.00 | 0.00 | 0.00 | 99 | 1010.0 |
| 20260503050620 | 6 | 274 | 0.0 | 0.0 | 0.00 | 0.00 | 0.00 | 99 | 1010.1 |
| 20260503050117 | 6 | 281 | 0.0 | 0.0 | 0.00 | 0.00 | 0.00 | 99 | 1009.7 |
| 20260503045614 | 6 | 2 | 1.6 | 1.6 | 0.00 | 0.00 | 0.00 | 99 | 1009.9 |
| 20260503045111 | 6 | 297 | 0.0 | 0.0 | 0.00 | 0.00 | 0.00 | 99 | 1010.2 |
| 20260503044608 | 6 | 317 | 0.0 | 0.0 | 0.00 | 0.00 | 0.00 | 99 | 1009.9 |
| 20260503044106 | 6 | 299 | 0.0 | 0.0 | 0.00 | 0.00 | 0.00 | 99 | 1010.1 |
| 20260503043601 | 6 | 292 | 0.0 | 0.0 | 0.00 | 0.00 | 0.00 | 99 | 1010.2 |
| 20260503043058 | 6 | 293 | 0.0 | 0.0 | 0.00 | 0.00 | 0.00 | 99 | 1010.1 |
| 20260503042555 | 6 | 261 | 0.0 | 0.0 | 0.00 | 0.00 | 0.00 | 99 | 1010.1 |
| 20260503042051 | 6 | 323 | 0.0 | 0.0 | 0.00 | 0.00 | 0.00 | 99 | 1010.0 |
| 20260503041548 | 6 | 296 | 0.0 | 0.0 | 0.00 | 0.00 | 0.00 | 99 | 1010.0 |
| 20260503041046 | 6 | 341 | 1.6 | 1.6 | 0.00 | 0.00 | 0.00 | 99 | 1010.1 |
| 20260503040543 | 6 | 25 | 1.6 | 1.6 | 0.00 | 0.00 | 0.00 | 99 | 1010.2 |
| 20260503040040 | 6 | 292 | 0.0 | 1.6 | 0.00 | 0.00 | 0.00 | 99 | 1010.1 |
| 20260503035537 | 6 | 287 | 0.0 | 0.0 | 0.00 | 0.91 | 0.91 | 99 | 1010.2 |
| 20260503035035 | 6 | 292 | 0.0 | 0.0 | 0.00 | 0.91 | 0.91 | 99 | 1010.3 |
| 20260503034532 | 6 | 27 | 3.2 | 3.2 | 0.00 | 0.91 | 0.91 | 99 | 1010.3 |
| 20260503034029 | 6 | 273 | 0.0 | 0.0 | 0.00 | 0.91 | 0.91 | 99 | 1010.3 |
| 20260503033526 | 6 | 274 | 0.0 | 0.0 | 0.00 | 0.91 | 0.91 | 99 | 1010.2 |
| 20260503033024 | 6 | 3 | 1.6 | 1.6 | 0.00 | 0.91 | 0.91 | 99 | 1010.4 |
| 20260503032522 | 6 | 334 | 0.0 | 0.0 | 0.00 | 0.91 | 0.91 | 99 | 1010.4 |
| 20260503032020 | 6 | 325 | 0.0 | 0.0 | 0.00 | 0.91 | 0.91 | 99 | 1010.4 |
| 20260503031517 | 6 | 321 | 0.0 | 0.0 | 0.00 | 0.91 | 0.91 | 99 | 1010.4 |
| 20260503031014 | 6 | 289 | 0.0 | 0.0 | 0.00 | 0.91 | 0.91 | 99 | 1010.6 |
| 20260503030510 | 6 | 273 | 0.0 | 0.0 | 0.00 | 0.91 | 0.91 | 99 | 1010.6 |
| 20260503030008 | 6 | 292 | 0.0 | 0.0 | 0.00 | 0.91 | 0.91 | 99 | 1010.5 |
| 20260503025504 | 6 | 292 | 0.0 | 0.0 | 0.00 | 0.91 | 0.91 | 99 | 1010.6 |
| 20260503025002 | 6 | 294 | 0.0 | 1.6 | 0.00 | 0.91 | 0.91 | 99 | 1010.6 |
| 20260503024458 | 6 | 325 | 0.0 | 0.0 | 0.00 | 0.91 | 0.91 | 99 | 1010.8 |
| 20260503023955 | 6 | 283 | 0.0 | 0.0 | 0.18 | 0.91 | 0.91 | 99 | 1011.1 |
| 20260503023452 | 6 | 317 | 0.0 | 0.0 | 0.18 | 0.91 | 0.91 | 99 | 1011.0 |
| 20260503022949 | 6 | 319 | 0.0 | 0.0 | 0.13 | 0.89 | 0.89 | 99 | 1011.0 |
| 20260503022444 | 6 | 321 | 0.0 | 1.6 | 0.13 | 0.89 | 0.89 | 99 | 1010.8 |
| 20260503021940 | 6 | 322 | 1.6 | 1.6 | 0.00 | 0.86 | 0.86 | 99 | 1010.9 |
| 20260503021436 | 6 | 276 | 0.0 | 0.0 | 0.00 | 0.86 | 0.86 | 99 | 1010.8 |
| 20260503020934 | 6 | 271 | 0.0 | 0.0 | 0.00 | 0.86 | 0.86 | 99 | 1010.8 |
| 20260503020432 | 6 | 332 | 1.6 | 1.6 | 0.00 | 0.86 | 0.86 | 99 | 1010.9 |
| 20260503015928 | 6 | 306 | 0.0 | 0.0 | 0.00 | 0.86 | 0.86 | 99 | 1010.9 |
| 20260503015425 | 6 | 300 | 0.0 | 0.0 | 0.00 | 0.86 | 0.86 | 99 | 1010.9 |
| 20260503014921 | 6 | 21 | 3.2 | 3.2 | 0.00 | 0.86 | 0.86 | 99 | 1011.2 |
| 20260503014418 | 6 | 35 | 1.6 | 1.6 | 0.18 | 0.86 | 0.86 | 99 | 1011.3 |
| 20260503013916 | 6 | 356 | 0.0 | 1.6 | 0.18 | 0.86 | 0.86 | 99 | 1011.3 |
| 20260503013413 | 6 | 322 | 1.6 | 1.6 | 0.00 | 0.84 | 0.84 | 99 | 1011.4 |
| 20260503012910 | 6 | 334 | 3.2 | 4.8 | 0.00 | 0.84 | 0.84 | 99 | 1011.4 |
| 20260503012408 | 6 | 338 | 1.6 | 1.6 | 0.00 | 0.84 | 0.84 | 99 | 1011.3 |
| 20260503011904 | 6 | 34 | 3.2 | 4.8 | 0.00 | 0.84 | 0.84 | 99 | 1011.5 |
| 20260503011401 | 6 | 324 | 1.6 | 1.6 | 0.00 | 0.84 | 0.84 | 99 | 1011.4 |
| 20260503010858 | 6 | 332 | 0.0 | 1.6 | 0.13 | 0.84 | 0.84 | 99 | 1011.4 |
| 20260503010354 | 7 | 299 | 0.0 | 0.0 | 0.13 | 0.84 | 0.84 | 99 | 1011.4 |
| 20260503005851 | 7 | 340 | 1.6 | 1.6 | 0.00 | 0.81 | 0.81 | 99 | 1011.7 |
| 20260503005349 | 7 | 306 | 0.0 | 0.0 | 0.00 | 0.81 | 0.81 | 99 | 1011.4 |
| 20260503004845 | 7 | 354 | 1.6 | 1.6 | 0.00 | 0.81 | 0.81 | 99 | 1011.4 |
| 20260503004342 | 7 | 46 | 0.0 | 1.6 | 0.18 | 0.81 | 0.81 | 99 | 1011.3 |
| 20260503003840 | 7 | 326 | 0.0 | 1.6 | 0.18 | 0.81 | 0.81 | 99 | 1011.5 |
| 20260503003337 | 7 | 316 | 1.6 | 1.6 | 0.13 | 0.79 | 0.79 | 99 | 1011.3 |
| 20260503002833 | 7 | 4 | 0.0 | 0.0 | 0.13 | 0.79 | 0.79 | 99 | 1011.5 |
| 20260503002331 | 7 | 346 | 1.6 | 1.6 | 0.00 | 0.76 | 0.76 | 99 | 1011.5 |
| 20260503001827 | 7 | 296 | 0.0 | 0.0 | 0.00 | 0.76 | 0.76 | 99 | 1011.4 |
| 20260503001323 | 7 | 286 | 0.0 | 0.0 | 0.00 | 0.76 | 0.76 | 99 | 1011.1 |
| 20260503000821 | 7 | 276 | 0.0 | 0.0 | 0.00 | 0.76 | 0.76 | 99 | 1011.0 |
| 20260503000319 | 7 | 303 | 0.0 | 0.0 | 0.00 | 0.76 | 0.76 | 99 | 1010.9 |
| 20260502235815 | 7 | 9 | 1.6 | 1.6 | 0.00 | 0.76 | 0.76 | 99 | 1011.0 |